This is the latest recevied weather packets stored in our database for station/object KQ4NAL. If no packets are shown the sender has not sent any weather packets the latest 10 day(s).
| Time | Temp. | Humidity | Pressure | Rain* | Wind** | Luminosity | Snow |
|---|---|---|---|---|---|---|---|
| 1778024644 | 15.56° C | 99% | 1007.9 hPa | 0 mm | - | 6 W/m² | - |
| 1778024341 | 15.56° C | 99% | 1007.8 hPa | 0 mm | - | 8 W/m² | - |
| 1778024039 | 15.56° C | 99% | 1008 hPa | 1.27 mm | - | 20 W/m² | - |
| 1778023735 | 15.56° C | 99% | 1008 hPa | 1.27 mm | - | 20 W/m² | - |
| 1778023434 | 15.56° C | 99% | 1007.9 hPa | 0 mm | - | 12 W/m² | - |
| 1778023130 | 15.56° C | 99% | 1008.1 hPa | 0 mm | - | 16 W/m² | - |
| 1778022827 | 15.56° C | 99% | 1008.4 hPa | 1.78 mm | - | 24 W/m² | - |
| 1778022525 | 15.56° C | 99% | 1008.6 hPa | 1.78 mm | - | 17 W/m² | - |
| 1778022222 | 15.56° C | 98% | 1008.2 hPa | 0 mm | - | 20 W/m² | - |
| 1778021919 | 15.56° C | 98% | 1008.4 hPa | 0 mm | - | 40 W/m² | - |
| 1778021616 | 15.56° C | 98% | 1008.2 hPa | 0 mm | - | 46 W/m² | - |
| 1778021311 | 15.56° C | 98% | 1008.6 hPa | 0 mm | - | 43 W/m² | - |
| 1778021010 | 15.56° C | 98% | 1008.9 hPa | 0 mm | - | 29 W/m² | - |
| 1778020706 | 16.11° C | 98% | 1008.6 hPa | 0 mm | - | 38 W/m² | - |
| 1778020403 | 16.11° C | 98% | 1009 hPa | 0 mm | - | 35 W/m² | - |
| 1778020099 | 16.11° C | 98% | 1009 hPa | 0 mm | - | 53 W/m² | - |
| 1778019795 | 16.11° C | 98% | 1008.9 hPa | 0 mm | - | 63 W/m² | - |
| 1778019493 | 16.11° C | 98% | 1009 hPa | 0 mm | - | 88 W/m² | - |
| 1778019189 | 16.11° C | 98% | 1009.2 hPa | 0 mm | - | 81 W/m² | - |
| 1778018886 | 16.11° C | 98% | 1009.2 hPa | 0 mm | - | 65 W/m² | - |
| 1778018583 | 16.11° C | 98% | 1009.5 hPa | 0 mm | - | 59 W/m² | - |
| 1778018281 | 16.11° C | 98% | 1009.4 hPa | 1.27 mm | - | 53 W/m² | - |
| 1778017979 | 16.11° C | 98% | 1009.3 hPa | 1.27 mm | - | 40 W/m² | - |
| 1778017676 | 16.11° C | 98% | 1009.4 hPa | 0 mm | - | 78 W/m² | - |
| 1778017374 | 16.11° C | 98% | 1009.7 hPa | 1.78 mm | - | 69 W/m² | - |
* Rain latest hour (hover to see other rain measurements)
** Current wind speed in m/s (hover to see current wind gust speed)